| time (UTC) | temp C | wind direction | speed KPH | gust KPH | rain 1hr cm | rain 24hr cm | rain mn cm | humidity % | barometer mb |
| 20260506013211 | 7 | 121 | 9.7 | 0.0 | 0.00 | 0.00 | 0.00 | 92 | 1008.0 |
| 20260506010212 | 7 | 168 | 3.2 | 0.0 | 0.00 | 0.00 | 0.00 | 91 | 1008.1 |
| 20260506003209 | 8 | 157 | 4.8 | 0.0 | 0.00 | 0.00 | 0.00 | 91 | 1008.0 |
| 20260506000211 | 8 | 144 | 1.6 | 0.0 | 0.00 | 0.00 | 0.00 | 91 | 1008.5 |
| 20260505233209 | 8 | 160 | 11.3 | 0.0 | 0.00 | 0.00 | 0.00 | 91 | 1008.8 |
| 20260505230209 | 8 | 142 | 9.7 | 0.0 | 0.00 | 0.00 | 0.00 | 91 | 1008.7 |
| 20260505223210 | 8 | 175 | 6.4 | 0.0 | 0.00 | 0.00 | 0.00 | 91 | 1008.9 |
| 20260505220209 | 9 | 161 | 8.0 | 0.0 | 0.00 | 0.00 | 0.00 | 90 | 1008.8 |
| 20260505213211 | 10 | 167 | 6.4 | 0.0 | 0.00 | 0.00 | 0.41 | 89 | 1008.7 |
| 20260505210215 | 10 | 179 | 1.6 | 0.0 | 0.00 | 0.00 | 0.41 | 89 | 1009.0 |
| 20260505203209 | 10 | 190 | 1.6 | 0.0 | 0.00 | 0.00 | 0.41 | 88 | 1008.5 |
| 20260505200210 | 11 | 192 | 9.7 | 0.0 | 0.00 | 0.00 | 0.41 | 88 | 1008.4 |
| 20260505193209 | 11 | 192 | 9.7 | 0.0 | 0.00 | 0.00 | 0.41 | 88 | 1007.8 |
| 20260505190215 | 11 | 227 | 12.9 | 0.0 | 0.00 | 0.00 | 0.41 | 88 | 1007.9 |
| 20260505183212 | 11 | 188 | 9.7 | 0.0 | 0.00 | 0.00 | 0.41 | 90 | 1007.7 |
| 20260505180211 | 12 | 186 | 1.6 | 0.0 | 0.00 | 0.00 | 0.41 | 89 | 1007.8 |
| 20260505173210 | 12 | 188 | 6.4 | 0.0 | 0.00 | 0.00 | 0.41 | 88 | 1007.8 |
| 20260505170210 | 12 | 209 | 8.0 | 0.0 | 0.00 | 0.00 | 0.41 | 88 | 1007.8 |
| 20260505163211 | 12 | 213 | 3.2 | 0.0 | 0.00 | 0.00 | 0.41 | 89 | 1007.6 |
| 20260505153210 | 15 | 180 | 8.0 | 0.0 | 0.00 | 0.00 | 0.05 | 70 | 1006.8 |
| 20260505150215 | 15 | 120 | 6.4 | 0.0 | 0.00 | 0.00 | 0.05 | 69 | 1006.9 |
| 20260505140210 | 14 | 153 | 11.3 | 0.0 | 0.00 | 0.00 | 0.05 | 73 | 1007.2 |
| 20260505130210 | 13 | 141 | 12.9 | 0.0 | 0.00 | 0.00 | 0.05 | 82 | 1007.9 |
| 20260505123210 | 13 | 133 | 14.5 | 0.0 | 0.00 | 0.00 | 0.05 | 79 | 1008.1 |
| 20260505120210 | 13 | 142 | 4.8 | 0.0 | 0.00 | 0.00 | 0.05 | 82 | 1008.2 |
| 20260505113210 | 13 | 144 | 3.2 | 0.0 | 0.00 | 0.00 | 0.03 | 78 | 1008.1 |
| 20260505110211 | 14 | 155 | 9.7 | 0.0 | 0.00 | 0.00 | 0.00 | 81 | 1008.3 |
| 20260505100212 | 15 | 80 | 6.4 | 0.0 | 0.00 | 0.00 | 0.00 | 68 | 1008.3 |
| 20260505093212 | 15 | 0 | 6.4 | 0.0 | 0.00 | 0.00 | 0.00 | 68 | 1008.3 |
| 20260505090211 | 16 | 312 | 11.3 | 0.0 | 0.00 | 0.00 | 0.00 | 68 | 1008.4 |
| 20260505083211 | 15 | 315 | 6.4 | 0.0 | 0.00 | 0.00 | 0.00 | 66 | 1008.5 |
| 20260505080210 | 15 | 284 | 3.2 | 0.0 | 0.00 | 0.00 | 0.00 | 72 | 1008.7 |
| 20260505073210 | 13 | 263 | 3.2 | 0.0 | 0.00 | 0.00 | 0.00 | 82 | 1008.9 |
| 20260505070211 | 12 | 263 | 0.0 | 0.0 | 0.00 | 0.00 | 0.00 | 87 | 1009.1 |
| 20260505063211 | 11 | 263 | 0.0 | 0.0 | 0.00 | 0.00 | 0.00 | 86 | 1009.3 |
| 20260505060212 | 10 | 263 | 0.0 | 0.0 | 0.00 | 0.00 | 0.00 | 87 | 1009.1 |
| 20260505053211 | 10 | 263 | 1.6 | 0.0 | 0.00 | 0.00 | 0.00 | 90 | 1009.1 |
| 20260505050211 | 9 | 263 | 0.0 | 0.0 | 0.00 | 0.00 | 0.00 | 90 | 1009.4 |
| 20260505040211 | 9 | 263 | 1.6 | 0.0 | 0.00 | 0.00 | 0.00 | 89 | 1009.7 |
| 20260505033211 | 9 | 263 | 3.2 | 0.0 | 0.00 | 0.00 | 0.00 | 88 | 1009.7 |
| 20260505030213 | 9 | 263 | 0.0 | 0.0 | 0.00 | 0.00 | 0.00 | 87 | 1009.9 |
| 20260505023211 | 10 | 263 | 0.0 | 0.0 | 0.00 | 0.00 | 0.00 | 86 | 1010.1 |
| 20260505020211 | 10 | 263 | 0.0 | 0.0 | 0.00 | 0.00 | 0.00 | 85 | 1010.4 |